| time (UTC) | temp C | wind direction | speed KPH | gust KPH | rain 1hr cm | rain 24hr cm | rain mn cm | humidity % | barometer mb |
| 20260507141512 | 12 | 30 | 4.8 | 12.9 | 0.00 | 0.00 | 0.00 | 61 | 1016.8 |
| 20260507140004 | 12 | 18 | 4.8 | 16.1 | 0.00 | 0.00 | 0.00 | 60 | 1016.9 |
| 20260507134504 | 12 | 63 | 4.8 | 14.5 | 0.00 | 0.00 | 0.00 | 57 | 1016.9 |
| 20260507133005 | 12 | 37 | 4.8 | 11.3 | 0.00 | 0.00 | 0.00 | 56 | 1016.9 |
| 20260507131512 | 12 | 37 | 4.8 | 12.9 | 0.00 | 0.00 | 0.00 | 56 | 1016.8 |
| 20260507130002 | 12 | 346 | 4.8 | 12.9 | 0.00 | 0.00 | 0.00 | 57 | 1016.9 |
| 20260507124606 | 12 | 49 | 4.8 | 12.9 | 0.00 | 0.00 | 0.00 | 59 | 1016.8 |
| 20260507123100 | 12 | 344 | 4.8 | 14.5 | 0.00 | 0.00 | 0.00 | 58 | 1016.7 |
| 20260507121559 | 12 | 65 | 3.2 | 12.9 | 0.00 | 0.00 | 0.00 | 59 | 1016.8 |
| 20260507120058 | 12 | 35 | 6.4 | 14.5 | 0.00 | 0.00 | 0.00 | 58 | 1016.7 |
| 20260507114609 | 12 | 344 | 6.4 | 12.9 | 0.00 | 0.00 | 0.00 | 58 | 1016.7 |
| 20260507113128 | 12 | 60 | 6.4 | 14.5 | 0.00 | 0.00 | 0.00 | 58 | 1016.7 |
| 20260507111558 | 12 | 19 | 4.8 | 14.5 | 0.00 | 0.00 | 0.00 | 58 | 1016.8 |
| 20260507110055 | 12 | 6 | 8.0 | 17.7 | 0.00 | 0.00 | 0.00 | 57 | 1016.7 |
| 20260507104555 | 13 | 66 | 6.4 | 17.7 | 0.00 | 0.00 | 0.00 | 56 | 1016.7 |
| 20260507103055 | 13 | 84 | 4.8 | 12.9 | 0.00 | 0.00 | 0.00 | 53 | 1016.7 |
| 20260507101551 | 13 | 44 | 3.2 | 12.9 | 0.00 | 0.00 | 0.00 | 54 | 1016.7 |
| 20260507100050 | 13 | 89 | 6.4 | 14.5 | 0.00 | 0.00 | 0.00 | 54 | 1016.7 |
| 20260507094548 | 14 | 65 | 8.0 | 17.7 | 0.00 | 0.00 | 0.00 | 53 | 1016.6 |
| 20260507093049 | 14 | 37 | 9.7 | 19.3 | 0.00 | 0.00 | 0.00 | 54 | 1016.5 |
| 20260507091551 | 14 | 127 | 4.8 | 11.3 | 0.00 | 0.00 | 0.00 | 52 | 1016.4 |
| 20260507090043 | 14 | 167 | 4.8 | 14.5 | 0.00 | 0.00 | 0.00 | 52 | 1016.3 |
| 20260507084546 | 14 | 107 | 4.8 | 16.1 | 0.00 | 0.00 | 0.00 | 53 | 1016.2 |
| 20260507083040 | 14 | 115 | 3.2 | 12.9 | 0.00 | 0.00 | 0.00 | 54 | 1016.2 |
| 20260507081546 | 13 | 71 | 6.4 | 12.9 | 0.00 | 0.00 | 0.00 | 54 | 1016.2 |
| 20260507080040 | 13 | 96 | 4.8 | 12.9 | 0.00 | 0.00 | 0.00 | 55 | 1016.1 |
| 20260507074536 | 12 | 56 | 3.2 | 11.3 | 0.00 | 0.00 | 0.00 | 59 | 1016.1 |
| 20260507073030 | 12 | 143 | 1.6 | 6.4 | 0.00 | 0.00 | 0.00 | 62 | 1016.1 |
| 20260507071528 | 11 | 98 | 3.2 | 9.7 | 0.00 | 0.00 | 0.00 | 63 | 1016.0 |
| 20260507070027 | 11 | 60 | 3.2 | 9.7 | 0.00 | 0.00 | 0.00 | 63 | 1016.0 |
| 20260507064526 | 11 | 101 | 1.6 | 8.0 | 0.00 | 0.00 | 0.00 | 65 | 1015.9 |
| 20260507063028 | 10 | 63 | 4.8 | 8.0 | 0.00 | 0.00 | 0.00 | 65 | 1015.8 |
| 20260507061524 | 10 | 67 | 3.2 | 8.0 | 0.00 | 0.00 | 0.00 | 66 | 1015.7 |
| 20260507060022 | 10 | 96 | 0.0 | 9.7 | 0.00 | 0.00 | 0.00 | 68 | 1015.5 |
| 20260507054521 | 10 | 64 | 4.8 | 11.3 | 0.00 | 0.00 | 0.00 | 67 | 1015.5 |
| 20260507053020 | 10 | 63 | 1.6 | 11.3 | 0.00 | 0.00 | 0.00 | 68 | 1015.3 |
| 20260507051519 | 10 | 60 | 1.6 | 8.0 | 0.00 | 0.00 | 0.00 | 67 | 1015.3 |
| 20260507050025 | 10 | 108 | 0.0 | 3.2 | 0.00 | 0.00 | 0.00 | 67 | 1015.1 |
| 20260507044516 | 10 | 67 | 1.6 | 6.4 | 0.00 | 0.00 | 0.00 | 67 | 1014.9 |
| 20260507043023 | 10 | 80 | 0.0 | 4.8 | 0.00 | 0.00 | 0.00 | 67 | 1014.7 |
| 20260507041514 | 10 | 70 | 0.0 | 4.8 | 0.00 | 0.00 | 0.00 | 67 | 1014.8 |
| 20260507040013 | 10 | 70 | 1.6 | 4.8 | 0.00 | 0.00 | 0.00 | 67 | 1014.7 |
| 20260507034521 | 10 | 84 | 1.6 | 8.0 | 0.00 | 0.00 | 0.00 | 67 | 1014.6 |
| 20260507033014 | 10 | 51 | 3.2 | 6.4 | 0.00 | 0.00 | 0.00 | 67 | 1014.4 |
| 20260507031508 | 9 | 78 | 0.0 | 4.8 | 0.00 | 0.00 | 0.00 | 67 | 1014.4 |
| 20260507030007 | 9 | 80 | 0.0 | 3.2 | 0.00 | 0.00 | 0.00 | 67 | 1014.3 |
| 20260507024503 | 10 | 87 | 0.0 | 4.8 | 0.00 | 0.00 | 0.00 | 66 | 1014.2 |
| 20260507023006 | 10 | 68 | 1.6 | 8.0 | 0.00 | 0.00 | 0.00 | 65 | 1014.1 |
| 20260507021559 | 10 | 83 | 1.6 | 9.7 | 0.00 | 0.00 | 0.00 | 64 | 1014.1 |
| 20260507020103 | 10 | 81 | 1.6 | 8.0 | 0.00 | 0.00 | 0.00 | 63 | 1013.8 |
| 20260507014556 | 11 | 62 | 4.8 | 12.9 | 0.00 | 0.00 | 0.00 | 62 | 1013.6 |
| 20260507013053 | 11 | 37 | 4.8 | 16.1 | 0.00 | 0.00 | 0.00 | 62 | 1013.6 |
| 20260507011551 | 11 | 37 | 3.2 | 9.7 | 0.00 | 0.00 | 0.00 | 64 | 1013.5 |
| 20260507010049 | 11 | 64 | 0.0 | 6.4 | 0.00 | 0.00 | 0.00 | 64 | 1013.5 |
| 20260507004548 | 11 | 48 | 0.0 | 4.8 | 0.00 | 0.00 | 0.00 | 64 | 1013.4 |
| 20260507003054 | 11 | 29 | 0.0 | 4.8 | 0.00 | 0.00 | 0.00 | 64 | 1013.3 |
| 20260507001609 | 11 | 32 | 0.0 | 3.2 | 0.00 | 0.00 | 0.00 | 64 | 1013.4 |
| 20260507000046 | 11 | 11 | 0.0 | 3.2 | 0.00 | 0.00 | 0.00 | 64 | 1013.4 |
| 20260506234551 | 11 | 65 | 1.6 | 8.0 | 0.00 | 0.00 | 0.00 | 64 | 1013.3 |
| 20260506233043 | 11 | 30 | 4.8 | 12.9 | 0.00 | 0.00 | 0.00 | 66 | 1013.2 |
| 20260506231540 | 11 | 49 | 6.4 | 17.7 | 0.00 | 0.00 | 0.00 | 65 | 1013.2 |
| 20260506230050 | 11 | 37 | 6.4 | 16.1 | 0.00 | 0.00 | 0.00 | 64 | 1013.2 |
| 20260506224532 | 11 | 34 | 3.2 | 14.5 | 0.00 | 0.00 | 0.00 | 66 | 1013.2 |
| 20260506223033 | 11 | 10 | 6.4 | 16.1 | 0.00 | 0.00 | 0.00 | 66 | 1013.2 |
| 20260506221530 | 11 | 38 | 6.4 | 17.7 | 0.00 | 0.00 | 0.00 | 65 | 1013.1 |
| 20260506220033 | 11 | 350 | 6.4 | 17.7 | 0.00 | 0.00 | 0.00 | 66 | 1013.1 |
| 20260506214526 | 11 | 44 | 6.4 | 14.5 | 0.00 | 0.00 | 0.00 | 66 | 1013.1 |
| 20260506213025 | 11 | 34 | 4.8 | 11.3 | 0.00 | 0.00 | 0.00 | 65 | 1013.1 |
| 20260506211524 | 11 | 63 | 4.8 | 12.9 | 0.00 | 0.00 | 0.00 | 67 | 1013.1 |
| 20260506210044 | 11 | 12 | 3.2 | 16.1 | 0.00 | 0.00 | 0.00 | 67 | 1012.9 |
| 20260506204523 | 11 | 40 | 4.8 | 12.9 | 0.00 | 0.00 | 0.00 | 67 | 1012.9 |
| 20260506203022 | 11 | 56 | 6.4 | 17.7 | 0.00 | 0.00 | 0.00 | 67 | 1012.9 |
| 20260506201523 | 11 | 32 | 4.8 | 11.3 | 0.00 | 0.00 | 0.00 | 67 | 1012.8 |
| 20260506200021 | 11 | 77 | 4.8 | 16.1 | 0.00 | 0.00 | 0.00 | 67 | 1012.7 |
| 20260506194520 | 11 | 29 | 6.4 | 17.7 | 0.00 | 0.00 | 0.00 | 67 | 1012.6 |
| 20260506193029 | 11 | 21 | 6.4 | 14.5 | 0.00 | 0.00 | 0.00 | 67 | 1012.5 |
| 20260506191517 | 11 | 4 | 4.8 | 20.9 | 0.00 | 0.00 | 0.00 | 67 | 1012.3 |
| 20260506190015 | 11 | 37 | 6.4 | 19.3 | 0.00 | 0.00 | 0.00 | 66 | 1012.3 |
| 20260506184514 | 11 | 24 | 9.7 | 19.3 | 0.00 | 0.00 | 0.00 | 66 | 1012.2 |
| 20260506183013 | 11 | 19 | 3.2 | 22.5 | 0.00 | 0.00 | 0.00 | 66 | 1012.1 |
| 20260506181512 | 11 | 307 | 6.4 | 19.3 | 0.00 | 0.00 | 0.00 | 65 | 1012.1 |
| 20260506180010 | 11 | 328 | 6.4 | 25.7 | 0.00 | 0.00 | 0.00 | 65 | 1011.8 |
| 20260506174508 | 11 | 352 | 6.4 | 19.3 | 0.00 | 0.00 | 0.00 | 65 | 1011.6 |
| 20260506173007 | 11 | 14 | 8.0 | 20.9 | 0.00 | 0.00 | 0.00 | 64 | 1011.5 |
| 20260506171507 | 12 | 42 | 8.0 | 19.3 | 0.00 | 0.00 | 0.00 | 64 | 1011.5 |
| 20260506170005 | 12 | 30 | 9.7 | 22.5 | 0.00 | 0.00 | 0.00 | 63 | 1011.3 |
| 20260506164517 | 12 | 335 | 11.3 | 20.9 | 0.00 | 0.00 | 0.00 | 63 | 1011.3 |
| 20260506163009 | 12 | 50 | 4.8 | 19.3 | 0.00 | 0.00 | 0.00 | 63 | 1011.3 |
| 20260506161505 | 12 | 354 | 9.7 | 19.3 | 0.00 | 0.00 | 0.00 | 62 | 1011.3 |
| 20260506160003 | 12 | 41 | 11.3 | 22.5 | 0.00 | 0.00 | 0.00 | 62 | 1011.3 |
| 20260506154502 | 12 | 55 | 9.7 | 27.4 | 0.00 | 0.00 | 0.00 | 62 | 1011.4 |
| 20260506153001 | 12 | 77 | 9.7 | 22.5 | 0.00 | 0.00 | 0.00 | 62 | 1011.3 |
| 20260506151605 | 12 | 27 | 11.3 | 22.5 | 0.00 | 0.00 | 0.00 | 60 | 1011.3 |
| 20260506150108 | 12 | 37 | 11.3 | 25.7 | 0.00 | 0.00 | 0.00 | 60 | 1011.3 |
| 20260506144600 | 12 | 31 | 12.9 | 24.1 | 0.00 | 0.00 | 0.00 | 60 | 1011.2 |
| 20260506143059 | 13 | 58 | 6.4 | 22.5 | 0.00 | 0.00 | 0.00 | 62 | 1011.1 |